User: anonymous   Login
Location: Caltech
(34.1382°N, 118.1253°W)
Time: 01:36:48
(UTC-07:00)
Language:

SPOT 1/Viking Rocket - Orbit

View from above orbital plane
View from above orbital plane
View from above satellite
View from above satellite

Ground track
Ground track

The orbit data is extracted from the following two-line orbital elements,

1 16615U 86019C   15214.78681848  .00000111  00000-0  58506-4 0  9997
2 16615 098.7041 273.0488 0010682 256.4040 210.8075 14.31504106541570
Epoch (UTC): 02 August 2015 18:53:01
Eccentricity: 0.0010682
inclination: 98.7041°
perigee height: 779 km
apogee height: 794 km
right ascension of ascending node: 273.0488°
argument of perigee: 256.4040°
revolutions per day: 14.31504106
mean anomaly at epoch: 210.8075°
orbit number at epoch: 54157

The dashed part of the orbit path shows where the satellite is in the earth's shadow,  

DLR